Regional Weather Roundup
Issued by NWS

Home | Current Version | Previous Version | Graphics & Text | Print | Product List | Glossary On
Versions: 1 2 3 4 5 6 7 8 9 10 11 12 13 14 15 16 17 18 19 20 21 22 23 24 25 26 27
000
ASUS45 KCYS 200410
RWRWY

WYOMING REGIONAL WEATHER ROUNDUP
NATIONAL WEATHER SERVICE CHEYENNE WY
900 PM MST SUN NOV 19 2017

NOTE:  "FAIR" INDICATES FEW OR NO CLOUDS BELOW 12,000 FEET
WITH NO SIGNIFICANT WEATHER AND/OR OBSTRUCTIONS TO VISIBILITY.

WYZ001-200500-
YELLOWSTONE NATIONAL PARK

CITY           SKY/WX    TMP DP  RH WIND       PRES   REMARKS
LK YELLOWSTONE   N/A     15  13  91 VRB5      30.02F WCI   8
W YELLOWSTONE  NOT AVBL

$$
WYZ002>013-054>058-071-098>099-200500-
NORTHERN WYOMING

CITY           SKY/WX    TMP DP  RH WIND       PRES   REMARKS
JACKSON        FAIR      15  12  88 N7          N/A  WCI   5
CODY           FAIR      47   1  15 W17G32    29.80F
GREYBULL       FAIR      25  22  88 CALM      29.83F
WORLAND        FAIR      22  20  92 CALM      29.82F
SHERIDAN       FAIR      45  13  27 SW7       29.68F
BUFFALO        FAIR      42  10  27 VRB7      29.72F
GILLETTE       FAIR      41  12  30 SW18      29.73F
HULETT         FAIR      43  16  33 SW9       29.75S
NEWCASTLE      FAIR      32  16  51 E10       29.81F WCI  24

$$
WYZ014>020-022>026-101>103-200500-
CENTRAL WYOMING

CITY           SKY/WX    TMP DP  RH WIND       PRES   REMARKS
BIG PINEY      FAIR      10   8  92 CALM      30.08F
PINEDALE       FAIR      14  12  92 W6        30.09R WCI   5
DUBOIS         FAIR      32   5  32 NW23G30   29.90F WCI  19
LANDER         FAIR      30  14  51 W5        29.88F WCI  25
RIVERTON       FAIR      31  16  54 SW7       29.89F WCI  24
CASPER         FAIR      36  16  44 SW22G30   29.90S WCI  25
DOUGLAS        FAIR      36  16  44 NW7       29.86S WCI  30

$$
WYZ021-027>030-104>119-200500-
SOUTHERN WYOMING

CITY           SKY/WX    TMP DP  RH WIND       PRES   REMARKS
EVANSTON       FAIR      26  17  68 SW8       30.09R WCI  18
FORT BRIDGER   FAIR      29  16  58 W3        30.11S
ROCK SPRINGS   FAIR      24  16  71 W8        30.08F WCI  15
DIXON          FAIR      14   9  81 CALM      30.18R
RAWLINS        FAIR      32  12  43 W20G28    30.04S WCI  20
SARATOGA       FAIR      21  10  63 S9        30.08S WCI  11
LARAMIE        FAIR      31   8  38 W17       29.99S WCI  19
CHEYENNE       FAIR      42   2  18 W23G30    29.95R
TORRINGTON     FAIR      44  10  25 W12G20    29.86R
PINE BLUFFS    FAIR      32   9  37 MISG      29.93S

$$




USA.gov is the U.S. government's official web portal to all federal, state and local government web resources and services.